KD5JEO Weather Reports


time (UTC)temp
C
wind
direction
speed
KPH
gust
KPH
rain 1hr
cm
rain 24hr
cm
rain mn
cm
humidity
%
barometer
mb
20260504081544 12 199 9.7 17.7 0.00 0.00 0.00 48 997.8
20260504081032 12 232 8.0 16.1 0.00 0.00 0.00 48 997.9
20260504080530 12 207 6.4 16.1 0.00 0.00 0.00 49 998.0
20260504050534 8 205 4.8 8.0 0.00 0.00 0.00 61 1001.1
20260504045531 8 194 3.2 8.0 0.00 0.00 0.00 61 1001.3
20260504045032 8 194 3.2 8.0 0.00 0.00 0.00 61 1001.5
20260504044544 8 192 3.2 8.0 0.00 0.00 0.00 62 1001.5
20260504044032 8 190 3.2 6.4 0.00 0.00 0.00 62 1001.7
20260504043531 8 190 1.6 6.4 0.00 0.00 0.00 61 1001.7
20260504043102 9 196 3.2 6.4 0.00 0.00 0.00 60 1001.8
20260504042531 9 209 3.2 6.4 0.00 0.00 0.00 59 1001.9
20260504042031 9 204 3.2 6.4 0.00 0.00 0.00 59 1002.0
20260504041538 9 211 3.2 4.8 0.00 0.00 0.00 58 1002.0
20260504041031 9 192 1.6 4.8 0.00 0.00 0.00 57 1002.1
20260504040531 9 192 1.6 4.8 0.00 0.00 0.00 57 1002.2
20260504040042 9 0 1.6 4.8 0.00 0.00 0.00 57 1002.3
20260504035534 9 192 1.6 4.8 0.00 0.00 0.00 56 1002.4
20260504035034 10 192 1.6 8.0 0.00 0.00 0.00 56 1002.5
20260504034550 10 183 1.6 8.0 0.00 0.00 0.00 55 1002.6
20260504034034 10 177 1.6 4.8 0.00 0.00 0.00 54 1002.7
20260504033534 10 193 1.6 4.8 0.00 0.00 0.00 53 1002.7
20260504033043 10 193 1.6 4.8 0.00 0.00 0.00 53 1002.8
20260504032533 10 193 1.6 6.4 0.00 0.00 0.00 53 1002.8
20260504032031 10 193 1.6 8.0 0.00 0.00 0.00 55 1002.8
20260504031549 11 199 3.2 8.0 0.00 0.00 0.00 54 1002.9
20260504031032 11 181 3.2 6.4 0.00 0.00 0.00 54 1002.9
20260504030531 11 177 3.2 4.8 0.00 0.00 0.00 52 1003.0
20260504030055 11 207 3.2 4.8 0.00 0.00 0.00 51 1003.1
20260504025531 11 207 1.6 4.8 0.00 0.00 0.00 49 1003.1
20260504025031 11 207 3.2 6.4 0.00 0.00 0.00 48 1003.1
20260504024539 12 212 3.2 6.4 0.00 0.00 0.00 48 1003.2
20260504024030 12 207 3.2 6.4 0.00 0.00 0.00 48 1003.2
20260504023531 12 204 3.2 4.8 0.00 0.00 0.00 47 1003.2
20260504023041 12 213 3.2 4.8 0.00 0.00 0.00 46 1003.2
20260504022530 12 206 3.2 4.8 0.00 0.00 0.00 45 1003.2
20260504022032 12 206 3.2 4.8 0.00 0.00 0.00 46 1003.2
20260504021545 13 206 1.6 4.8 0.00 0.00 0.00 43 1003.2
20260504021031 13 206 1.6 4.8 0.00 0.00 0.00 42 1003.1
20260504020531 13 205 3.2 4.8 0.00 0.00 0.00 42 1003.1
20260504020043 14 205 3.2 4.8 0.00 0.00 0.00 39 1003.2
20260504015531 14 235 1.6 4.8 0.00 0.00 0.00 39 1003.2
20260504015033 15 234 3.2 6.4 0.00 0.00 0.00 36 1003.2
20260504014543 15 235 3.2 6.4 0.00 0.00 0.00 36 1003.3
20260504014030 15 249 3.2 11.3 0.00 0.00 0.00 35 1003.3
20260504013532 16 266 3.2 11.3 0.00 0.00 0.00 33 1003.4
20260504013044 16 264 4.8 11.3 0.00 0.00 0.00 33 1003.4
20260504012532 17 241 3.2 9.7 0.00 0.00 0.00 32 1003.4
20260504012032 17 263 3.2 9.7 0.00 0.00 0.00 31 1003.5
20260504011538 17 277 3.2 12.9 0.00 0.00 0.00 30 1003.4
20260504011035 18 249 4.8 14.5 0.00 0.00 0.00 29 1003.4
20260504010530 18 258 6.4 17.7 0.00 0.00 0.00 29 1003.4
20260504010056 18 235 6.4 17.7 0.00 0.00 0.00 29 1003.4
20260504005530 18 292 11.3 17.7 0.00 0.00 0.00 28 1003.6
20260504005031 18 283 4.8 14.5 0.00 0.00 0.00 30 1003.5
20260504004543 18 269 6.4 14.5 0.00 0.00 0.00 28 1003.5
20260504004032 18 248 8.0 14.5 0.00 0.00 0.00 28 1003.5
20260504003532 18 248 6.4 20.9 0.00 0.00 0.00 28 1003.5
20260504003035 18 271 6.4 20.9 0.00 0.00 0.00 27 1003.5
20260504002530 18 240 9.7 19.3 0.00 0.00 0.00 27 1003.6
20260504002034 19 263 8.0 19.3 0.00 0.00 0.00 27 1003.6
20260504001543 19 280 11.3 19.3 0.00 0.00 0.00 27 1003.6
20260504001030 19 239 11.3 19.3 0.00 0.00 0.00 27 1003.6
20260504000533 19 262 8.0 17.7 0.00 0.00 0.00 26 1003.7
20260504000040 20 271 6.4 19.3 0.00 0.00 0.00 26 1003.6
20260503235531 20 277 9.7 19.3 0.00 0.00 0.00 25 1003.7
20260503235032 20 272 8.0 19.3 0.00 0.00 0.00 25 1003.7
20260503234541 20 347 9.7 19.3 0.00 0.00 0.00 24 1003.6
20260503234032 20 306 11.3 20.9 0.00 0.00 0.00 24 1003.6
20260503233532 20 248 9.7 20.9 0.00 0.00 0.00 25 1003.8
20260503233038 20 327 9.7 24.1 0.00 0.00 0.00 24 1003.8
20260503232537 20 280 9.7 24.1 0.00 0.00 0.00 24 1003.9
20260503232031 20 345 11.3 24.1 0.00 0.00 0.00 23 1004.0
20260503231543 20 11 11.3 22.5 0.00 0.00 0.00 24 1004.0
20260503231036 20 311 11.3 24.1 0.00 0.00 0.00 24 1004.1
20260503230532 20 343 14.5 24.1 0.00 0.00 0.00 25 1004.1
20260503230058 20 340 11.3 22.5 0.00 0.00 0.00 26 1004.0
20260503225531 20 311 6.4 22.5 0.00 0.00 0.00 26 1004.1
20260503225032 20 278 11.3 29.0 0.00 0.00 0.00 25 1004.2
20260503224543 20 312 8.0 29.0 0.00 0.00 0.00 25 1004.3
20260503224036 20 300 12.9 24.1 0.00 0.00 0.00 25 1004.2
20260503223533 20 352 6.4 22.5 0.00 0.00 0.00 26 1004.3
20260503223051 21 296 12.9 22.5 0.00 0.00 0.00 25 1004.4
20260503222531 20 298 9.7 24.1 0.00 0.00 0.00 27 1004.3
20260503222031 20 290 11.3 27.4 0.00 0.00 0.00 26 1004.3
20260503221551 20 268 12.9 32.2 0.00 0.00 0.00 25 1004.4
20260503221033 21 298 14.5 32.2 0.00 0.00 0.00 26 1004.4
20260503220533 20 242 11.3 30.6 0.00 0.00 0.00 27 1004.3
20260503220051 21 236 11.3 30.6 0.00 0.00 0.00 27 1004.4
20260503215532 20 304 12.9 30.6 0.00 0.00 0.00 27 1004.4
20260503215032 20 327 9.7 30.6 0.00 0.00 0.00 27 1004.4
20260503214554 21 290 19.3 30.6 0.00 0.00 0.00 26 1004.5
20260503214033 21 315 8.0 24.1 0.00 0.00 0.00 28 1004.5
20260503213533 20 323 14.5 24.1 0.00 0.00 0.00 26 1004.5
20260503213040 21 343 14.5 24.1 0.00 0.00 0.00 26 1004.6
20260503212532 21 346 11.3 30.6 0.00 0.00 0.00 27 1004.6
20260503212032 20 329 8.0 30.6 0.00 0.00 0.00 27 1004.6
20260503211541 21 301 12.9 27.4 0.00 0.00 0.00 27 1004.6
20260503211031 20 11 9.7 30.6 0.00 0.00 0.00 29 1004.6
20260503210531 20 320 12.9 30.6 0.00 0.00 0.00 27 1004.6
20260503210047 21 280 12.9 30.6 0.00 0.00 0.00 29 1004.6
20260503205531 21 278 16.1 30.6 0.00 0.00 0.00 29 1004.6
20260503205032 21 269 8.0 25.7 0.00 0.00 0.00 29 1004.7
20260503204547 20 298 9.7 25.7 0.00 0.00 0.00 29 1004.8
20260503204031 21 308 14.5 25.7 0.00 0.00 0.00 28 1004.8
20260503203533 21 306 8.0 19.3 0.00 0.00 0.00 28 1004.8
20260503203047 21 352 8.0 33.8 0.00 0.00 0.00 28 1005.0
20260503202531 21 285 16.1 33.8 0.00 0.00 0.00 28 1004.9
20260503202036 21 350 12.9 25.7 0.00 0.00 0.00 27 1004.9
20260503201541 20 319 16.1 32.2 0.00 0.00 0.00 28 1005.0
20260503201031 20 333 9.7 32.2 0.00 0.00 0.00 30 1005.2
20260503200532 20 306 16.1 32.2 0.00 0.00 0.00 27 1005.3
20260503200044 20 273 14.5 35.4 0.00 0.00 0.00 28 1005.3
20260503195531 20 340 19.3 35.4 0.00 0.00 0.00 26 1005.2
20260503195032 20 19 19.3 35.4 0.00 0.00 0.00 26 1005.3
20260503194546 20 10 20.9 32.2 0.00 0.00 0.00 27 1005.4
20260503194032 20 302 6.4 35.4 0.00 0.00 0.00 29 1005.3
20260503193532 20 325 20.9 35.4 0.00 0.00 0.00 27 1005.5
20260503193039 21 349 19.3 35.4 0.00 0.00 0.00 27 1005.3
20260503192532 20 319 14.5 30.6 0.00 0.00 0.00 30 1005.3
20260503192034 20 341 14.5 32.2 0.00 0.00 0.00 30 1005.4
20260503191538 20 339 19.3 32.2 0.00 0.00 0.00 29 1005.4
20260503191034 20 302 11.3 25.7 0.00 0.00 0.00 33 1005.4
20260503190533 20 298 9.7 24.1 0.00 0.00 0.00 33 1005.3
20260503190043 20 304 9.7 33.8 0.00 0.00 0.00 34 1005.4
20260503185532 20 5 19.3 33.8 0.00 0.00 0.00 31 1005.4
20260503185031 20 337 11.3 33.8 0.00 0.00 0.00 36 1005.5
20260503184536 20 5 20.9 33.8 0.00 0.00 0.00 32 1005.4
20260503184032 21 302 11.3 27.4 0.00 0.00 0.00 36 1005.4
20260503183533 20 24 9.7 27.4 0.00 0.00 0.00 34 1005.4
20260503183042 20 352 16.1 30.6 0.00 0.00 0.00 33 1005.5
20260503182531 20 252 14.5 30.6 0.00 0.00 0.00 34 1005.4
20260503182032 20 292 14.5 30.6 0.00 0.00 0.00 33 1005.5
20260503181557 20 317 9.7 30.6 0.00 0.00 0.00 34 1005.6
20260503181031 20 32 16.1 33.8 0.00 0.00 0.00 35 1005.6
20260503180533 20 23 16.1 33.8 0.00 0.00 0.00 35 1005.6
20260503180046 20 309 9.7 33.8 0.00 0.00 0.00 40 1005.6
20260503175533 20 267 11.3 33.8 0.00 0.00 0.00 38 1005.7
20260503175031 20 302 16.1 30.6 0.00 0.00 0.00 38 1005.6
20260503174541 20 352 8.0 37.0 0.00 0.00 0.00 39 1005.6
20260503174031 19 293 16.1 37.0 0.00 0.00 0.00 38 1005.7
20260503173531 20 291 16.1 25.7 0.00 0.00 0.00 40 1005.7
20260503173035 20 31 11.3 25.7 0.00 0.00 0.00 38 1005.7
20260503172535 19 291 12.9 32.2 0.00 0.00 0.00 38 1005.7
20260503172032 20 24 12.9 32.2 0.00 0.00 0.00 39 1005.8
20260503171543 19 5 12.9 33.8 0.00 0.00 0.00 36 1005.9
20260503171031 19 339 11.3 33.8 0.00 0.00 0.00 37 1005.9
20260503170532 19 341 16.1 33.8 0.00 0.00 0.00 39 1005.9
20260503150529 17 284 14.5 33.8 0.00 0.00 0.00 44 1005.4
20260503131033 13 309 4.8 19.3 0.00 0.00 0.00 50 1004.7
20260503130532 13 352 4.8 19.3 0.00 0.00 0.00 51 1004.5
20260503110532 10 200 6.4 12.9 0.00 0.00 0.00 55 1003.6